Location: Newark
(41.6500°N, 71.4833°W)
Time: 03:29:18
(UTC+00:00)

A-11 Canister half - Pass Details

Date: 28 January 2020
Orbit: 1517 x 1683 km, 47.2° (Epoch: 18 February)

Event Time Altitude Azimuth Distance (km) Brightness Sun altitude
Rises 01:25:25 0° 192° (SSW) 4,798 11.6 -39.3°
Enters shadow 01:28:10 - 184° (S) 4,062 11.1 -39.8°
Reaches altitude 10° 01:29:16 10° 180° (S) 3,788 - -40.0°
Maximum altitude 01:36:33 25° 129° (SE) 2,734 - -41.3°
Drops below altitude 10° 01:43:42 10° 79° (E) 3,711 - -42.6°
Sets 01:47:22 0° 67° (ENE) 4,681 - -43.3°
